Time,TemperatureF,DewpointF,PressureIn,WindDirection,WindDirectionDegrees,WindSpeedMPH,WindSpeedGustMPH,Humidity,HourlyPrecipIn,Conditions,Clouds,dailyrainin,SolarRadiationWatts/m^2,SoftwareType,DateUTC
2013-05-24 00:03:00,55.0,55.0,-100.00,WNW,294,4.0,9.0,100,0.00,,,0.20,0.000000,,2013-05-24 04:03:00,
2013-05-24 00:33:00,55.0,55.0,-100.00,WNW,291,3.0,8.0,100,0.00,,,-99.99,0.000000,,2013-05-24 04:33:00,
2013-05-24 00:42:00,55.0,55.0,-100.00,WNW,291,3.0,8.0,100,0.00,,,-99.99,0.000000,,2013-05-24 04:42:00,
2013-05-24 00:53:00,55.0,55.0,-100.00,WNW,291,3.0,8.0,100,0.00,,,-99.99,0.000000,,2013-05-24 04:53:00,
2013-05-24 01:02:00,55.0,55.0,-100.00,WNW,291,3.0,8.0,100,0.00,,,-99.99,0.000000,,2013-05-24 05:02:00,
2013-05-24 01:32:00,53.0,53.0,-100.00,NW,307,7.0,17.0,100,0.02,,,0.22,0.000000,,2013-05-24 05:32:00,
2013-05-24 01:42:00,53.0,53.0,-100.00,NW,307,7.0,17.0,100,0.02,,,0.22,0.000000,,2013-05-24 05:42:00,
2013-05-24 01:52:00,53.0,53.0,-100.00,NW,307,7.0,17.0,100,0.02,,,0.22,0.000000,,2013-05-24 05:52:00,
2013-05-24 02:02:00,53.0,53.0,-100.00,NW,307,7.0,17.0,100,0.02,,,0.22,0.000000,,2013-05-24 06:02:00,
2013-05-24 02:32:00,49.0,49.0,-100.00,NW,318,7.0,15.0,100,0.00,,,0.22,0.000000,,2013-05-24 06:32:00,
2013-05-24 02:42:00,49.0,49.0,-100.00,NW,318,7.0,15.0,100,0.00,,,0.22,0.000000,,2013-05-24 06:42:00,
2013-05-24 02:52:00,49.0,49.0,-100.00,NW,318,7.0,15.0,100,0.00,,,0.22,0.000000,,2013-05-24 06:52:00,
2013-05-24 03:02:00,49.0,49.0,-100.00,NW,318,7.0,15.0,100,0.00,,,0.22,0.000000,,2013-05-24 07:02:00,
2013-05-24 03:32:00,44.0,44.0,-100.00,NNW,344,7.0,16.0,100,0.00,,,0.21,0.000000,,2013-05-24 07:32:00,
2013-05-24 03:42:00,44.0,44.0,-100.00,NNW,344,7.0,16.0,100,0.00,,,0.21,0.000000,,2013-05-24 07:42:00,
2013-05-24 03:52:00,44.0,44.0,-100.00,NNW,344,7.0,16.0,100,0.00,,,0.21,0.000000,,2013-05-24 07:52:00,
2013-05-24 04:02:00,44.0,44.0,-100.00,NNW,344,7.0,16.0,100,0.00,,,0.21,0.000000,,2013-05-24 08:02:00,
2013-05-24 04:33:00,42.0,42.0,-100.00,North,349,8.0,20.0,100,0.01,,,0.22,0.000000,,2013-05-24 08:33:00,
2013-05-24 04:42:00,42.0,42.0,-100.00,North,349,8.0,20.0,100,0.01,,,0.22,0.000000,,2013-05-24 08:42:00,
2013-05-24 04:52:00,42.0,42.0,-100.00,North,349,8.0,20.0,100,0.01,,,0.22,0.000000,,2013-05-24 08:52:00,
2013-05-24 05:02:00,42.0,42.0,-100.00,North,349,8.0,20.0,100,0.01,,,0.22,0.000000,,2013-05-24 09:02:00,
2013-05-24 05:33:00,40.0,40.0,-100.00,NW,323,7.0,24.0,100,0.01,,,0.23,0.000000,,2013-05-24 09:33:00,
2013-05-24 05:42:00,40.0,40.0,-100.00,NW,323,7.0,24.0,100,0.01,,,0.23,0.000000,,2013-05-24 09:42:00,
2013-05-24 05:53:00,40.0,40.0,-100.00,NW,323,7.0,24.0,100,0.01,,,0.23,0.000000,,2013-05-24 09:53:00,
2013-05-24 06:03:00,40.0,40.0,-100.00,NW,323,7.0,24.0,100,0.01,,,0.23,0.000000,,2013-05-24 10:03:00,
2013-05-24 06:33:00,39.0,39.0,-100.00,NNW,334,6.0,18.0,100,0.00,,,0.23,1.000000,,2013-05-24 10:33:00,
2013-05-24 06:42:00,39.0,39.0,-100.00,NNW,334,6.0,18.0,100,0.00,,,0.23,1.000000,,2013-05-24 10:42:00,
2013-05-24 06:53:00,39.0,39.0,-100.00,NNW,334,6.0,18.0,100,0.00,,,0.23,1.000000,,2013-05-24 10:53:00,
2013-05-24 07:02:00,39.0,39.0,-100.00,NNW,334,6.0,18.0,100,0.00,,,0.23,1.000000,,2013-05-24 11:02:00,
2013-05-24 07:32:00,38.0,37.0,-100.00,North,354,7.0,16.0,98,0.00,,,0.23,16.000000,,2013-05-24 11:32:00,
2013-05-24 07:42:00,38.0,37.0,-100.00,North,354,7.0,16.0,98,0.00,,,0.23,16.000000,,2013-05-24 11:42:00,
2013-05-24 07:52:00,38.0,37.0,-100.00,North,354,7.0,16.0,98,0.00,,,0.23,16.000000,,2013-05-24 11:52:00,
2013-05-24 08:02:00,38.0,37.0,-100.00,North,354,7.0,16.0,98,0.00,,,0.23,16.000000,,2013-05-24 12:02:00,
2013-05-24 08:33:00,38.0,37.0,-100.00,North,3,7.0,19.0,98,0.00,,,0.23,106.000000,,2013-05-24 12:33:00,
2013-05-24 08:42:00,38.0,37.0,-100.00,North,3,7.0,19.0,98,0.00,,,0.23,106.000000,,2013-05-24 12:42:00,
2013-05-24 08:52:00,38.0,37.0,-100.00,North,3,7.0,19.0,98,0.00,,,0.23,106.000000,,2013-05-24 12:52:00,
2013-05-24 09:02:00,38.0,37.0,-100.00,North,3,7.0,19.0,98,0.00,,,0.23,106.000000,,2013-05-24 13:02:00,
2013-05-24 09:32:00,39.0,35.0,-100.00,North,350,10.0,20.0,86,0.00,,,0.22,311.000000,,2013-05-24 13:32:00,
2013-05-24 09:42:00,39.0,35.0,-100.00,North,350,10.0,20.0,86,0.00,,,0.22,311.000000,,2013-05-24 13:42:00,
2013-05-24 09:52:00,39.0,35.0,-100.00,North,350,10.0,20.0,86,0.00,,,0.22,311.000000,,2013-05-24 13:52:00,
2013-05-24 10:02:00,39.0,35.0,-100.00,North,350,10.0,20.0,86,0.00,,,0.22,311.000000,,2013-05-24 14:02:00,
2013-05-24 10:32:00,40.0,37.0,-100.00,North,351,9.0,20.0,88,0.00,,,0.20,286.000000,,2013-05-24 14:32:00,
2013-05-24 10:42:00,40.0,37.0,-100.00,North,351,9.0,20.0,88,0.00,,,0.20,286.000000,,2013-05-24 14:42:00,
2013-05-24 10:52:00,40.0,37.0,-100.00,North,351,9.0,20.0,88,0.00,,,0.20,286.000000,,2013-05-24 14:52:00,
2013-05-24 11:02:00,40.0,37.0,-100.00,North,351,9.0,20.0,88,0.00,,,0.20,286.000000,,2013-05-24 15:02:00,
2013-05-24 11:33:00,40.0,35.0,-100.00,NNW,335,6.0,18.0,81,0.00,,,0.20,253.000000,,2013-05-24 15:33:00,
2013-05-24 11:43:00,40.0,35.0,-100.00,NNW,335,6.0,18.0,81,0.00,,,0.20,253.000000,,2013-05-24 15:43:00,
2013-05-24 11:53:00,40.0,35.0,-100.00,NNW,335,6.0,18.0,81,0.00,,,0.20,253.000000,,2013-05-24 15:53:00,
2013-05-24 12:03:00,40.0,35.0,-100.00,NNW,335,6.0,18.0,81,0.00,,,0.20,253.000000,,2013-05-24 16:03:00,
2013-05-24 12:33:00,42.0,37.0,-100.00,North,359,8.0,22.0,82,0.00,,,0.20,265.000000,,2013-05-24 16:33:00,
2013-05-24 12:42:00,42.0,37.0,-100.00,North,359,8.0,22.0,82,0.00,,,0.20,265.000000,,2013-05-24 16:42:00,
2013-05-24 12:52:00,42.0,37.0,-100.00,North,359,8.0,22.0,82,0.00,,,0.20,265.000000,,2013-05-24 16:52:00,
2013-05-24 13:02:00,42.0,37.0,-100.00,North,359,8.0,22.0,82,0.00,,,0.20,265.000000,,2013-05-24 17:02:00,
2013-05-24 13:32:00,44.0,36.0,-100.00,North,6,10.0,22.0,73,0.00,,,0.20,496.000000,,2013-05-24 17:32:00,
2013-05-24 13:42:00,44.0,36.0,-100.00,North,6,10.0,22.0,73,0.00,,,0.20,496.000000,,2013-05-24 17:42:00,
2013-05-24 13:52:00,44.0,36.0,-100.00,North,6,10.0,22.0,73,0.00,,,0.20,496.000000,,2013-05-24 17:52:00,
2013-05-24 14:01:00,44.0,36.0,-100.00,North,6,10.0,22.0,73,0.00,,,0.20,496.000000,,2013-05-24 18:01:00,
2013-05-24 14:32:00,43.0,34.0,-100.00,NNW,328,10.0,21.0,70,0.00,,,0.20,451.000000,,2013-05-24 18:32:00,
2013-05-24 14:42:00,43.0,34.0,-100.00,NNW,328,10.0,21.0,70,0.00,,,0.20,451.000000,,2013-05-24 18:42:00,
2013-05-24 14:52:00,43.0,34.0,-100.00,NNW,328,10.0,21.0,70,0.00,,,0.20,451.000000,,2013-05-24 18:52:00,
2013-05-24 15:01:00,43.0,34.0,-100.00,NNW,328,10.0,21.0,70,0.00,,,0.20,451.000000,,2013-05-24 19:01:00,
2013-05-24 15:32:00,45.0,36.0,-100.00,NNW,343,10.0,20.0,71,0.00,,,0.20,564.000000,,2013-05-24 19:32:00,
2013-05-24 15:42:00,45.0,36.0,-100.00,NNW,343,10.0,20.0,71,0.00,,,0.20,564.000000,,2013-05-24 19:42:00,
2013-05-24 15:52:00,45.0,36.0,-100.00,NNW,343,10.0,20.0,71,0.00,,,0.20,564.000000,,2013-05-24 19:52:00,
2013-05-24 16:02:00,45.0,36.0,-100.00,NNW,343,10.0,20.0,71,0.00,,,0.20,564.000000,,2013-05-24 20:02:00,
2013-05-24 16:32:00,42.0,31.0,-100.00,NNW,344,10.0,21.0,65,0.00,,,0.16,523.000000,,2013-05-24 20:32:00,
2013-05-24 16:42:00,42.0,31.0,-100.00,NNW,344,10.0,21.0,65,0.00,,,0.16,523.000000,,2013-05-24 20:42:00,
2013-05-24 16:52:00,42.0,31.0,-100.00,NNW,344,10.0,21.0,65,0.00,,,0.16,523.000000,,2013-05-24 20:52:00,
2013-05-24 17:01:00,42.0,31.0,-100.00,NNW,344,10.0,21.0,65,0.00,,,0.16,523.000000,,2013-05-24 21:01:00,
2013-05-24 17:33:00,41.0,31.0,-100.00,NNW,345,8.0,20.0,67,0.00,,,0.05,403.000000,,2013-05-24 21:33:00,
2013-05-24 17:43:00,41.0,31.0,-100.00,NNW,345,8.0,20.0,67,0.00,,,0.05,403.000000,,2013-05-24 21:43:00,
2013-05-24 17:53:00,41.0,31.0,-100.00,NNW,345,8.0,20.0,67,0.00,,,0.05,403.000000,,2013-05-24 21:53:00,
2013-05-24 18:03:00,41.0,31.0,-100.00,NNW,345,8.0,20.0,67,0.00,,,0.05,403.000000,,2013-05-24 22:03:00,
2013-05-24 18:33:00,40.0,30.0,-100.00,NNW,339,6.0,20.0,68,0.00,,,0.05,185.000000,,2013-05-24 22:33:00,
2013-05-24 18:42:00,40.0,30.0,-100.00,NNW,339,6.0,20.0,68,0.00,,,0.05,185.000000,,2013-05-24 22:42:00,
2013-05-24 18:52:00,40.0,30.0,-100.00,NNW,339,6.0,20.0,68,0.00,,,0.05,185.000000,,2013-05-24 22:52:00,
2013-05-24 19:02:00,40.0,30.0,-100.00,NNW,339,6.0,20.0,68,0.00,,,0.05,185.000000,,2013-05-24 23:02:00,
2013-05-24 19:32:00,39.0,30.0,-100.00,North,356,8.0,17.0,69,0.00,,,0.04,119.000000,,2013-05-24 23:32:00,
2013-05-24 19:42:00,39.0,30.0,-100.00,North,356,8.0,17.0,69,0.00,,,0.04,119.000000,,2013-05-24 23:42:00,
2013-05-24 19:52:00,39.0,30.0,-100.00,North,356,8.0,17.0,69,0.00,,,0.04,119.000000,,2013-05-24 23:52:00,
2013-05-24 20:01:00,39.0,30.0,-100.00,North,356,8.0,17.0,69,0.00,,,0.04,119.000000,,2013-05-25 00:01:00,
2013-05-24 20:32:00,39.0,30.0,-100.00,NNW,344,7.0,16.0,70,0.00,,,0.04,30.000000,,2013-05-25 00:32:00,
2013-05-24 20:42:00,39.0,30.0,-100.00,NNW,344,7.0,16.0,70,0.00,,,0.04,30.000000,,2013-05-25 00:42:00,
2013-05-24 20:52:00,39.0,30.0,-100.00,NNW,344,7.0,16.0,70,0.00,,,0.04,30.000000,,2013-05-25 00:52:00,
2013-05-24 21:01:00,39.0,30.0,-100.00,NNW,344,7.0,16.0,70,0.00,,,0.04,30.000000,,2013-05-25 01:01:00,
2013-05-24 21:32:00,38.0,31.0,-100.00,NNW,340,5.0,17.0,75,0.00,,,0.04,4.000000,,2013-05-25 01:32:00,
2013-05-24 21:42:00,38.0,31.0,-100.00,NNW,340,5.0,17.0,75,0.00,,,0.04,4.000000,,2013-05-25 01:42:00,
2013-05-24 21:52:00,38.0,31.0,-100.00,NNW,340,5.0,17.0,75,0.00,,,0.04,4.000000,,2013-05-25 01:52:00,
2013-05-24 22:02:00,38.0,31.0,-100.00,NNW,340,5.0,17.0,75,0.00,,,0.04,4.000000,,2013-05-25 02:02:00,
2013-05-24 22:32:00,37.0,31.0,-100.00,NNW,340,4.0,11.0,79,0.00,,,0.04,0.000000,,2013-05-25 02:32:00,
2013-05-24 22:42:00,37.0,31.0,-100.00,NNW,340,4.0,11.0,79,0.00,,,0.04,0.000000,,2013-05-25 02:42:00,
2013-05-24 22:52:00,37.0,31.0,-100.00,NNW,340,4.0,11.0,79,0.00,,,0.04,0.000000,,2013-05-25 02:52:00,
2013-05-24 23:02:00,37.0,31.0,-100.00,NNW,340,4.0,11.0,79,0.00,,,0.04,0.000000,,2013-05-25 03:02:00,
2013-05-24 23:33:00,37.0,33.0,-100.00,NW,325,5.0,12.0,84,0.00,,,0.04,0.000000,,2013-05-25 03:33:00,
2013-05-24 23:43:00,37.0,33.0,-100.00,NW,325,5.0,12.0,84,0.00,,,0.04,0.000000,,2013-05-25 03:43:00,
2013-05-24 23:53:00,37.0,33.0,-100.00,NW,325,5.0,12.0,84,0.00,,,0.04,0.000000,,2013-05-25 03:53:00,